{"data":{"norad_id":61741,"epoch":"2026-09-22T22:06:24.556320Z","epoch_age_seconds":90800,"freshness":"FRESH","line1":"1 61741U 24199G   26265.92111755  .00001139  00000+0  10469-3 0  9992","line2":"2 61741  97.3212  97.7211 0013697  92.6397 267.6394 14.96525833146503","mean_motion":14.96525833,"eccentricity":0.0013697,"inclination_deg":97.3212,"raan_deg":97.7211,"arg_perigee_deg":92.6397,"mean_anomaly_deg":267.6394,"bstar":0.00010469,"rev_number":14650,"period_min":96.222862863203,"perigee_km":568.11340418996,"apogee_km":587.1680617116,"semimajor_km":6955.7777329508,"source":"CELESTRAK","updated_at":"2026-09-23T09:00:21.023856Z"}}